User: anonymous   Login
Location: Oshawa
(43.9000°N, 78.8670°W)
Time: 02:27:12
(UTC-05:00)
Language:

CZ-4C R/B - Orbit

View from above orbital plane
View from above orbital plane
View from above satellite
View from above satellite

Ground track
Ground track

The orbit data is extracted from the following two-line orbital elements,

1 32290U 07055B   17328.88739076  .00002796  00000-0  78113-4 0  9990
2 32290  97.5411  78.8802 0063868 279.3567  80.0459 15.35603404556472
Epoch (UTC): 24 November 2017 21:17:50
Eccentricity: 0.0063868
inclination: 97.5411°
perigee height: 415 km
apogee height: 503 km
right ascension of ascending node: 78.8802°
argument of perigee: 279.3567°
revolutions per day: 15.35603404
mean anomaly at epoch: 80.0459°
orbit number at epoch: 55647

The dashed part of the orbit path shows where the satellite is in the earth's shadow,  

DLR